Location: Waning Moon II Observatory
(30.3730°N, 89.7620°W)
Time: 01:48:23
(UTC-05:00)

Daily predictions for brighter satellites

Satellite Brightness Start Highest point End
(mag) Time Altitude Azimuth Time Altitude Azimuth Time Altitude Azimuth
Cosmos 2297 Rocket 4.2 00:28:04 10° NNW 00:30:09 23° NNW 00:30:09 23° NNW
CZ-4C R/B 3.7 01:23:02 10° NNW 01:27:59 47° NNW 01:27:59 47° NNW
Cosmos 2263 Rocket 4.4 01:30:37 10° N 01:33:26 21° NE 01:33:26 21° NE
Cosmos 2360 Rocket 4.4 01:43:23 19° NE 01:43:23 19° NE 01:45:04 10° NE
Cosmos 1980 Rocket 4.5 01:43:36 17° NNW 01:43:36 17° NNW 01:45:33 10° N
SL-16 R/B 4.4 02:15:50 20° E 02:17:29 22° ENE 02:22:03 10° NNE
Resurs 1-4 Rocket 4.2 02:19:24 10° NE 02:21:44 20° ENE 02:21:44 20° ENE
CZ-3C R/B 4.4 02:25:01 58° SSW 02:27:50 62° S 04:32:58 10° ESE
SL-16 R/B 4.2 02:30:24 21° NNW 02:30:24 21° NNW 02:32:55 10° N
Cosmos 2322 Rocket 4.2 02:36:23 20° NNW 02:36:23 20° NNW 02:38:54 10° N
USA 234 3.6 02:38:28 10° NNE 02:44:08 56° NNW 02:44:08 56° NNW
ADEOS Rocket 3.7 02:42:25 10° NNE 02:46:32 46° NNE 02:46:32 46° NNE
H-2A R/B 4.1 01:50:13 10° W 02:51:24 87° N 02:58:03 10° E
BREEZE-M DEB (TANK) 4.4 02:56:18 34° ENE 02:56:18 34° ENE 03:01:54 10° NE
CZ-2D R/B 3.2 02:52:14 10° NNE 02:56:15 43° NE 02:56:15 43° NE
ATLAS 2AS CENTAUR R/B 3.2 03:08:37 57° WNW 03:08:48 57° WNW 03:16:45 10° NNE
Cosmos 2154 Rocket 4.1 03:12:07 69° ENE 03:12:07 69° ENE 03:18:06 10° N
ADEOS 4.2 03:11:28 10° NNE 03:15:41 52° NE 03:15:41 52° NE
Cosmos 2263 Rocket 4.3 03:13:54 10° NW 03:15:05 16° NW 03:15:05 16° NW
GOES 2 Rocket 4.3 03:22:35 76° SW 03:23:01 79° S 03:32:22 10° E
Cosmos 2360 Rocket 3.9 03:25:09 22° NW 03:25:09 22° NW 03:28:26 10° N
Cosmos 2219 Rocket 2.3 03:25:56 70° NE 03:25:56 70° NE 03:31:01 10° NNE
BREEZE-M DEB (TANK) 4.0 03:27:31 54° ENE 03:27:31 54° ENE 03:34:24 10° NE
ARIANE 5 R/B 3.0 03:22:02 10° NNE 03:26:12 59° N 03:26:12 59° N
Cosmos 1980 4.1 03:33:22 52° ESE 03:33:38 53° ESE 03:39:09 10° NNE
Cosmos 2237 Rocket 2.7 03:34:01 47° ESE 03:34:24 48° ESE 03:39:47 10° NNE
Intelsat 5-1 Rocket 4.2 03:37:15 22° ESE 03:37:15 22° ESE 03:40:20 10° ESE
Cosmos 1340 Rocket 4.5 03:32:36 10° N 03:34:58 31° NNE 03:34:58 31° NNE
Cosmos 2341 Rocket 4.0 03:36:30 69° SSE 03:37:18 81° E 03:43:40 10° N
Cosmos 1844 Rocket 3.2 03:32:28 10° N 03:38:02 56° ENE 03:40:44 30° SE
ATLAS 3B R/B 3.5 03:31:47 10° NNW 03:38:07 45° ENE 03:44:16 10° SE
COSMOS 2428 3.5 03:41:21 40° NW 03:41:21 40° NW 03:46:07 10° N
Aureole 2 Rocket 4.4 03:43:06 30° N 03:43:06 30° N 03:45:18 10° N
BREEZE-M DEB (TANK) 4.4 03:43:17 19° N 03:43:17 19° N 03:45:08 10° NNE
SEDSat Delta rocket 4.2 03:44:26 33° ENE 03:44:26 33° ENE 03:46:49 10° E
Cosmos 972 4.5 03:44:52 71° NNE 03:44:52 71° NNE 03:49:12 10° NNE
Iridium 4 Rocket 4.5 03:47:38 39° WNW 03:47:38 39° WNW 03:51:53 10° NNW
UNKNOWN OBJECT B 4.0 03:42:56 10° NNE 03:45:32 41° NNE 03:45:32 41° NNE
Cosmos 1932 4.4 03:44:13 10° NNW 03:50:42 89° WSW 03:54:07 30° SSE
ADEOS II 3.7 03:51:03 10° NE 03:55:34 29° E 03:58:42 17° SE
Lacrosse 5 rocket 3.9 03:53:59 10° N 03:57:11 22° NE 04:00:31 10° E
Cosmos 2333 Rocket 2.2 03:58:30 62° W 03:58:50 64° WNW 04:04:29 10° NNE
SL-16 R/B 2.8 04:00:55 48° W 04:00:55 48° W 04:06:41 10° NNW
Resurs 1-4 Rocket 3.1 03:58:44 10° N 04:02:49 31° WNW 04:02:49 31° WNW
MOZ.5/SAFIR/RUBIN 5/SL-8 3.6 04:03:27 76° SSE 04:03:49 88° ENE 04:08:27 10° N
Cosmos 1758 3.8 04:03:49 53° ESE 04:04:00 53° E 04:07:56 10° NNE
USA 161 4.1 04:03:28 19° E 04:04:05 20° ENE 04:06:18 10° NNE
Abrixas rocket 4.4 04:07:34 21° N 04:07:34 21° N 04:09:28 10° NNE
Cosmos 1295 Rocket 4.5 04:06:22 53° SW 04:07:43 66° W 04:14:02 10° N
Cosmos 1953 3.0 04:07:48 47° ESE 04:08:20 51° E 04:12:14 10° NNE
USA 238 DEB 4.1 04:02:52 10° NNW 04:09:56 65° ENE 04:17:02 10° SE
USA 238 4.2 04:02:59 10° NNW 04:10:03 64° ENE 04:17:08 10° SE
Cosmos 1356 Rocket 4.1 04:07:18 10° N 04:11:12 49° E 04:12:37 33° SE
Cosmos 2278 Rocket 3.5 04:07:30 10° N 04:12:49 41° ENE 04:18:07 10° SE
Cosmos 1354 Rocket 4.4 04:09:45 10° NNW 04:14:11 44° W 04:14:11 44° W
Centaur D AC-29 1.9 04:13:55 50° SW 04:14:55 60° S 04:29:52 10° ESE
Cosmos 1812 Rocket 3.9 04:17:25 47° WNW 04:17:25 47° WNW 04:21:10 10° N
Lacrosse 5 1.8 04:18:39 58° SW 04:19:38 80° NW 04:24:45 10° NE
Cosmos 968 Rocket 4.0 04:14:52 10° N 04:19:56 57° ENE 04:24:57 10° SSE
Cosmos 1733 4.4 04:18:48 27° SE 04:20:22 40° E 04:24:01 10° NNE
ERBS 4.4 04:22:15 19° NNW 04:22:15 19° NNW 04:24:19 10° N
SL-16 R/B 2.8 04:20:33 24° S 04:23:47 52° ESE 04:29:16 10° NNE
NOSS 0 Rocket 4.3 04:23:00 39° WSW 04:24:38 48° WNW 04:30:37 10° N
Meteor 1-24 Rocket 3.8 04:19:26 10° NNW 04:24:47 54° W 04:26:19 41° SW
CZ-2D R/B 4.2 04:22:02 10° N 04:25:40 37° WNW 04:25:40 37° WNW
Meteor 2-21 Rocket 4.4 04:23:46 28° S 04:27:10 90° WNW 04:33:18 10° N
KM-V1 4.5 04:24:59 32° W 04:27:32 89° S 04:30:46 10° E
Cosmos 1674 3.9 04:24:18 10° N 04:27:58 41° E 04:31:37 10° SSE
Cosmos 1959 Rocket 4.4 04:25:12 32° SSW 04:28:17 76° W 04:34:29 10° N
SL-8 Rocket 4.1 04:29:20 35° SW 04:31:50 57° W 04:38:03 10° N
Cosmos 1818 3.8 04:32:23 38° WSW 04:34:01 52° WNW 04:39:21 10° NNE
RESURS DK-1 3.2 04:32:21 26° SSE 04:34:17 46° ESE 04:38:15 10° NE
CZ-2D R/B 3.9 04:33:58 10° NNW 04:37:07 16° WNW 04:37:34 16° WNW
Atlas Centaur 2 1.3 04:36:38 51° SSW 04:37:16 59° SSE 04:41:41 10° E
Cosmos 1844 3.8 04:33:28 10° NNW 04:38:56 53° WSW 04:44:13 11° S
CZ-4B R/B 3.2 04:36:27 10° NNE 04:40:27 65° E 04:43:06 22° S
BREEZE-M DEB (TANK) 3.8 04:30:59 10° NW 04:41:21 54° SW 04:44:47 10° SSE
Okean 3 Rocket 3.7 04:38:44 10° N 04:43:12 79° E 04:47:40 10° S
Okean O Rocket 2.0 04:39:50 10° NNE 04:44:15 62° E 04:47:47 16° S
OAO 3 Rocket 3.2 04:44:06 16° WNW 04:47:54 79° NNE 04:52:47 10° ESE
NOSS 2-2 (C) 4.4 04:46:44 19° S 04:49:10 40° ESE 04:53:01 10° NE
Skynet4D Del rocket 4.4 04:46:35 27° SW 04:50:12 56° SSE 04:57:36 10° E
KORONAS-FOTON 4.2 04:52:02 10° N 04:55:57 68° E 04:59:51 10° SSE
Tiangong 1 3.2 05:02:31 12° NW 05:03:47 15° NNW 05:05:33 10° NNE
Centaur D AC-25 3.6 05:03:05 21° SW 05:03:48 22° SSW 05:07:02 10° SSE
Geosat 4.4 05:02:11 10° NNE 05:07:10 62° ESE 05:12:07 10° SSW
Meteor 2-15 Rocket 4.5 05:01:28 10° NNW 05:07:30 61° W 05:13:30 10° S
BREEZE M DEB (TANK) 3.7 05:04:43 10° WNW 05:08:03 54° SW 05:17:54 10° SE
NOSS 3-4 (A) 4.3 05:04:17 19° WSW 05:08:05 36° NW 05:13:58 10° NNE
NOSS 3-4 (C) 4.3 05:04:21 19° WSW 05:08:09 37° NW 05:14:03 10° NNE
Timation 1 Rocket 4.3 05:03:12 10° NNW 05:09:05 63° WSW 05:14:58 10° S
Cosmos 1727 Rocket 3.9 05:03:03 10° NNW 05:09:11 67° W 05:15:16 10° S
Cosmos 2219 Rocket 4.2 05:08:08 10° WNW 05:09:52 11° WNW 05:11:37 10° NW
PSLV R/B 3.7 05:06:41 10° N 05:11:00 58° WNW 05:14:41 14° SSW
Cosmos 2297 4.4 05:08:31 10° N 05:14:05 59° ENE 05:19:38 10° SSE
Cosmos 1408 Rocket 3.6 05:12:48 10° N 05:17:16 86° E 05:21:40 10° S
SeaSat 1 3.0 05:12:25 10° SE 05:17:16 63° ENE 05:22:09 10° NNW
SL-14 R/B 4.1 05:14:36 10° N 05:18:30 54° E 05:22:26 10° SSE
Cosmos 2237 Rocket 3.8 05:15:51 13° W 05:18:39 18° WNW 05:22:27 10° NNW
NOSS 2-2 (E) 3.4 05:17:04 16° SW 05:20:07 68° WNW 05:24:23 10° NNE
Cosmos 1844 Rocket 4.2 05:18:26 10° WNW 05:21:20 14° W 05:22:12 14° WSW
Iridium 2 3.6 05:19:58 10° S 05:23:45 69° W 05:27:33 10° N
ATLAS 3B R/B 3.5 05:23:16 10° WNW 05:28:22 24° WSW 05:33:23 10° SSW
SEDSat Delta rocket 2.7 05:24:47 10° W 05:28:49 85° SSW 05:33:07 10° ESE
Cosmos 1934 Rocket 4.4 05:23:13 10° S 05:29:21 69° E 05:35:25 10° NNE
BREEZE-M DEB (TANK) 4.5 05:22:24 10° WNW 05:30:14 24° WSW 05:33:34 10° SSW
Cosmos 1570 Rocket 4.1 05:25:25 10° SSW 05:30:41 63° WNW 05:35:57 10° N
Cosmos-2242 3.6 05:27:48 10° SSW 05:31:45 37° W 05:35:45 10° NNW
ATLAS CENTAUR R/B 2.5 05:29:02 10° NNW 05:31:50 33° NE 05:33:35 10° ESE
Palapa 6 Rocket 4.1 05:29:14 13° SW 05:33:00 30° S 05:36:43 10° ESE
CZ-4B R/B 3.5 05:28:04 10° N 05:33:30 51° WNW 05:38:50 10° SSW
GPS 2-05 Rocket1 2.7 05:31:59 13° WSW 05:34:44 73° SSE 05:38:03 10° ENE
ADEOS II 3.2 05:30:49 10° NNW 05:35:06 26° WNW 05:39:23 10° SW
Meteor 1-31 Rocket 2.7 05:31:31 10° N 05:35:22 82° WNW 05:39:15 10° SSW
Okean-O 3.4 05:31:46 10° NNE 05:36:08 55° E 05:40:27 10° S
Lacrosse 5 rocket 2.1 05:32:39 10° WNW 05:36:24 33° WSW 05:40:19 10° S
Cosmos 1242 Rocket 4.3 05:34:20 10° SSE 05:37:44 36° E 05:41:10 10° NNE
EO 1 Del DPAF 3.9 05:34:29 10° SSE 05:38:15 61° ENE 05:42:04 10° N
Cosmos 1777 Rocket 4.2 05:36:16 10° NNW 05:41:19 49° WSW 05:46:21 10° S
USA 32 4.0 05:36:19 10° N 05:41:33 76° W 05:46:46 10° S
Cosmos 1500 Rocket 4.0 05:46:48 10° N 05:51:08 69° E 05:55:27 10° SSE
